Content
SEND FEEDBACK

Daily
Averages
Monthly
Summary
United States of America

OAKS, TEXAS


Home > North America > United States > Texas
Elevation: 76 meters     Latitude: 28 35N     Longitude: 098 08W

WEATHER
 
SELECT A DAY
Number of Records: 183,244;   Date Range: 5/14/07 - 12/16/14
 
SHARE

PRINT THIS DATA

[ ← Previous Day ]
WEATHER ALMANAC - 31 JANUARY, 2013
[ Next Day → ]
[ °F ]   °C
Weather ElementAverageHighLow
Temperature12.3 °C21 °C (3:15 pm)3 °C (2:35 am)
Dewpoint-3.4 °C5 °C (11:35 pm)-8 °C (12:55 am)
Humidity36.7 %71 % (11:35 pm)16 % (3:15 pm)
Barometer1024.7 hPa1027.1 hPa (10:35 am)1022.7 hPa (4:35 pm)
Wind Speed9.3 km/h20.4 km/h (10:35 am)
Wind Gust27.8 km/h (11:35 am)
Weather ElementAverage
Visibility16.1 km
Wind DirectionSSE (151.6 °)

Weather ElementTotal
Precipitation---
Heating Degree Days6.3 (Base 18.3)
Growing Degree Days2 (Base 10)
Averaged from 62 records on 31 January, 2013
WEATHER CONDITIONS BREAKOUT
WIND DIRECTION BREAKOUT
WEATHER BY HOUR - 31 JANUARY, 2013
[ °F ]   °C
Local TimeTemperatureDewpointHumidityBarometerVisibilityWind DirectionWind SpeedGust SpeedPrecipitationEventsConditions
12:35 AM6 °C-7 °C39 %1023.7 hPa16.1 kmNE (40°)7.4 km/hClear
12:55 AM7 °C-8 °C34 %1024 hPa16.1 kmCalmClear
1:15 AM7 °C-8 °C34 %1024 hPa16.1 kmCalmClear
1:35 AM5 °C-6 °C45 %1024.4 hPa16.1 kmCalmClear
1:55 AM7 °C-7 °C37 %1024.4 hPa16.1 kmCalmClear
2:15 AM6 °C-7 °C39 %1024 hPa16.1 kmCalmClear
2:35 AM3 °C-5 °C56 %1023.7 hPa16.1 kmCalmClear
2:55 AM3 °C-5 °C56 %1023.7 hPa16.1 kmCalmClear
3:15 AM6 °C-7 °C39 %1024 hPa16.1 kmSE (130°)5.6 km/hClear
3:35 AM6 °C-6 °C42 %1024 hPa16.1 kmSouth (180°)5.6 km/hClear
4:15 AM5 °C-7 °C42 %1024 hPa16.1 kmWSW (250°)5.6 km/hClear
4:35 AM5 °C-7 °C42 %1024.4 hPa16.1 kmWSW (250°)9.3 km/hClear
4:55 AM6 °C-8 °C36 %1024.4 hPa16.1 kmWSW (250°)7.4 km/hClear
5:15 AM6 °C-7 °C39 %1024.4 hPa16.1 kmWSW (250°)9.3 km/hClear
5:35 AM6 °C-7 °C39 %1024 hPa16.1 kmWSW (250°)7.4 km/hClear
5:55 AM6 °C-7 °C39 %1024.4 hPa16.1 kmWSW (250°)11.1 km/hClear
6:15 AM6 °C-8 °C36 %1024.7 hPa16.1 kmWSW (250°)7.4 km/hClear
6:55 AM6 °C-8 °C36 %1025.1 hPa16.1 kmWSW (250°)7.4 km/hClear
7:15 AM6 °C-8 °C36 %1025.4 hPa16.1 kmWSW (250°)9.3 km/hClear
7:35 AM6 °C-7 °C39 %1025.4 hPa16.1 kmWSW (250°)7.4 km/hClear
8:35 AM10 °C-5 °C35 %1026.1 hPa16.1 kmSW (230°)9.3 km/hClear
8:55 AM10 °C-3 °C40 %1026.4 hPa16.1 kmSW (230°)7.4 km/hClear
9:15 AM11 °C-2 °C41 %1026.4 hPa16.1 kmSW (220°)9.3 km/hClear
9:35 AM12 °C-2 °C38 %1026.8 hPa16.1 kmSW (220°)9.3 km/hClear
9:55 AM14 °C-2 °C33 %1026.8 hPa16.1 kmSW (220°)11.1 km/hClear
10:15 AM16 °C-2 °C29 %1026.8 hPa16.1 kmSouth (190°)14.8 km/hClear
10:35 AM17 °C-3 °C26 %1027.1 hPa16.1 kmSouth (190°)20.4 km/hClear
10:55 AM16 °C-5 °C23 %1026.8 hPa16.1 kmSouth (190°)18.5 km/hClear
11:15 AM17 °C-5 °C22 %1027.1 hPa16.1 kmSSW (200°)16.7 km/hClear
11:35 AM18 °C-5 °C21 %1027.1 hPa16.1 kmSW (220°)16.7 km/h27.8 km/hClear
11:55 AM18 °C-6 °C19 %1026.8 hPa16.1 kmSSW (200°)11.1 km/hClear
12:15 PM19 °C-6 °C18 %1026.4 hPa16.1 kmSouth (180°)14.8 km/hClear
12:55 PM18 °C-7 °C18 %1026.1 hPa16.1 kmSouth (190°)16.7 km/hClear
1:15 PM19 °C-6 °C18 %1025.4 hPa16.1 kmSouth (190°)14.8 km/hClear
1:35 PM20 °C-6 °C17 %1025.1 hPa16.1 kmSSW (200°)14.8 km/hClear
1:55 PM20 °C-5 °C18 %1024.4 hPa16.1 kmSouth (170°)16.7 km/hClear
2:15 PM20 °C-5 °C18 %1023.7 hPa16.1 kmSSE (160°)18.5 km/h25.9 km/hClear
2:35 PM20 °C-6 °C17 %1023.7 hPa16.1 kmSouth (190°)11.1 km/hClear
3:15 PM21 °C-6 °C16 %1023 hPa16.1 kmSSE (160°)11.1 km/hClear
3:35 PM21 °C-6 °C16 %1023 hPa16.1 kmSSW (210°)9.3 km/hClear
3:55 PM21 °C-6 °C16 %1023 hPa16.1 kmSSE (150°)9.3 km/hClear
4:35 PM21 °C-6 °C16 %1022.7 hPa16.1 kmSSE (160°)14.8 km/hClear
4:55 PM20 °C-6 °C17 %1022.7 hPa16.1 kmSouth (170°)11.1 km/hClear
5:15 PM20 °C-5 °C18 %1022.7 hPa16.1 kmSSE (160°)18.5 km/hClear
5:55 PM17 °C-1 °C30 %1022.7 hPa16.1 kmSE (140°)18.5 km/hClear
6:15 PM16 °C0 °C34 %1023 hPa16.1 kmSSE (150°)16.7 km/hClear
6:35 PM15 °C0 °C36 %1023.4 hPa16.1 kmSE (140°)14.8 km/hClear
6:55 PM14 °C1 °C41 %1023.7 hPa16.1 kmSSE (150°)14.8 km/hClear
7:15 PM14 °C2 °C44 %1023.7 hPa16.1 kmSE (140°)14.8 km/hClear
7:35 PM14 °C3 °C48 %1024.4 hPa16.1 kmSE (140°)11.1 km/hClear
7:55 PM14 °C3 °C48 %1024.7 hPa16.1 kmSE (140°)11.1 km/hClear
8:15 PM13 °C3 °C51 %1025.1 hPa16.1 kmSE (140°)9.3 km/hClear
8:35 PM13 °C3 °C51 %1025.1 hPa16.1 kmSE (130°)7.4 km/hClear
8:55 PM12 °C3 °C54 %1025.4 hPa16.1 kmSE (140°)7.4 km/hClear
9:15 PM12 °C3 °C54 %1025.4 hPa16.1 kmSSE (150°)9.3 km/hClear
9:35 PM11 °C3 °C58 %1025.7 hPa16.1 kmSSE (150°)5.6 km/hClear
9:55 PM12 °C3 °C54 %1025.7 hPa16.1 kmSSE (160°)5.6 km/hClear
10:15 PM11 °C3 °C58 %1026.1 hPa16.1 kmCalmClear
10:55 PM11 °C4 °C62 %1026.1 hPa16.1 kmCalmClear
11:15 PM11 °C4 °C62 %1025.7 hPa16.1 kmCalmClear
11:35 PM10 °C5 °C71 %1026.1 hPa16.1 kmCalmClear
11:55 PM10 °C4 °C66 %1025.7 hPa16.1 kmEast (80°)5.6 km/hClear
Hourly data recorded from KBEA, located 0 kilometers away from Oaks, Texas







STORIES FROM OUR PARTNERS